Weather History for Kirksville, MO

Change the Weather History Date:

Saturday, May 18, 2013

  Actual Average Record
Temperature  
Mean Temperature 70 °F 63 °F  
Max Temperature 83 °F 73 °F 90 °F (1964)
Min Temperature 56 °F 52 °F 34 °F (2002)
Degree Days  
Heating Degree Days 0 4  
Month to date heating degree days 158 115  
Since 1 July heating degree days 6004 5805  
Cooling Degree Days 5 2  
Month to date cooling degree days 28 22  
Year to date cooling degree days 38 29  
Growing Degree Days 19 (Base 50)    
Moisture  
Dew Point 62 °F    
Average Humidity 79    
Maximum Humidity 100    
Minimum Humidity 58    
Precipitation  
Precipitation 0.00 in 0.14 in 2.28 in (1981)
Month to date precipitation 1.44 2.88  
Year to date precipitation 17.41 12.07  
Sea Level Pressure  
Sea Level Pressure 29.94 in    
Wind  
Wind Speed 8 mph (SE)    
Max Wind Speed 17 mph    
Max Gust Speed 39 mph    
Visibility 5 miles    
Events Fog    
T = Trace of Precipitation, MM = Missing Value Source: NWS Daily Summary

Daily Weather History Graph

Daily Weather History Graph

Search for Another Location

Airport:

Trip Planner

Search our weather history database for the weather conditions in past years. The results will help you decide how hot, cold, wet, or windy it might be!

Date:

Astronomy

May. 18, 2013 Rise Set
Actual Time 5:51 AM CDT 8:21 PM CDT
Civil Twilight 5:20 AM CDT 8:53 PM CDT
Nautical Twilight 4:42 AM CDT 9:31 PM CDT
Astronomical Twilight 3:59 AM CDT 10:14 PM CDT
Moon 1:25 PM CDT (5/18) 1:44 AM CDT (5/18)
Length of Visible Light 15h 32m
Length of Day
14h 30m
First Quarter, 55% of the Moon is Illuminated
May 18
First Quarter
May 24
Full
May 31
Last Quarter
Jun 8
New
Jun 16
First Quarter

Hourly Weather History & Observations

Time (CDT) Temp. Heat Index Dew Point Humidity Pressure Visibility Wind Dir Wind Speed Gust Speed Precip Events Conditions
12:55 AM 60.1 °F - 59.0 °F 96% 29.96 in 5.0 mi Calm Calm - N/A   Clear
1:55 AM 60.1 °F - 60.1 °F 100% 29.97 in 2.5 mi Calm Calm - N/A   Clear
2:00 AM 59.0 °F - 59.0 °F 100% 29.97 in 0.8 mi Calm Calm - N/A   Clear
2:16 AM 60.8 °F - 60.8 °F 100% 29.96 in 1.8 mi SE 3.5 mph - N/A   Clear
2:23 AM 60.8 °F - 60.8 °F 100% 29.96 in 2.5 mi ESE 3.5 mph - N/A   Clear
2:30 AM 60.8 °F - 60.8 °F 100% 29.96 in 3.0 mi ESE 4.6 mph - N/A   Clear
2:55 AM 61.0 °F - 60.1 °F 97% 29.96 in 2.5 mi ESE 4.6 mph - N/A   Clear
3:11 AM 60.8 °F - 60.8 °F 100% 29.96 in 0.8 mi Calm Calm - N/A   Clear
3:13 AM 60.8 °F - 60.8 °F 100% 29.96 in 0.5 mi ESE 3.5 mph - N/A Fog Fog
3:21 AM 60.8 °F - 60.8 °F 100% 29.96 in 1.0 mi SE 3.5 mph - N/A   Mist
3:28 AM 59.0 °F - 59.0 °F 100% 29.96 in 1.0 mi SE 3.5 mph - N/A   Clear
3:31 AM 59.0 °F - 59.0 °F 100% 29.96 in 0.5 mi SE 3.5 mph - N/A Fog Fog
3:55 AM 57.9 °F - 57.9 °F 100% 29.96 in 0.2 mi Calm Calm - N/A Fog Fog
4:06 AM 57.2 °F - 57.2 °F 100% 29.96 in 0.2 mi Calm Calm - N/A Fog Fog
4:55 AM 57.9 °F - 57.9 °F 100% 29.96 in 0.2 mi Calm Calm - N/A Fog Fog
5:55 AM 57.9 °F - 57.0 °F 97% 29.95 in 0.2 mi Calm Calm - N/A Fog Fog
6:55 AM 59.0 °F - 59.0 °F 100% 29.97 in 0.2 mi Calm Calm - N/A Fog Fog
7:20 AM 62.6 °F - 62.6 °F 100% 29.97 in 1.0 mi North - - N/A   Mist
7:26 AM 62.6 °F - 62.6 °F 100% 29.97 in 2.0 mi North - - N/A   Scattered Clouds
7:44 AM 64.4 °F - 64.4 °F 100% 29.98 in 3.0 mi SSE 4.6 mph - N/A   Clear
7:55 AM 66.0 °F - 64.9 °F 96% 29.97 in 4.0 mi SSE 5.8 mph - N/A   Clear
8:55 AM 72.0 °F - 66.0 °F 81% 29.99 in 9.0 mi SE 5.8 mph - N/A   Clear
9:55 AM 73.9 °F - 66.0 °F 76% 29.98 in 10.0 mi SE 6.9 mph - N/A   Partly Cloudy
10:55 AM 75.9 °F - 66.0 °F 71% 29.96 in 10.0 mi SE 11.5 mph - N/A   Partly Cloudy
11:55 AM 78.1 °F - 64.9 °F 64% 29.95 in 10.0 mi SE 11.5 mph - N/A   Scattered Clouds
12:55 PM 78.1 °F - 64.0 °F 62% 29.94 in 10.0 mi SE 12.7 mph - N/A   Mostly Cloudy
1:55 PM 78.8 °F - 64.4 °F 61% 29.92 in 10.0 mi SE 11.5 mph 18.4 mph N/A   Mostly Cloudy
2:55 PM 81.0 °F 82.7 °F 64.9 °F 58% 29.91 in 10.0 mi ESE 16.1 mph 19.6 mph N/A   Mostly Cloudy
3:55 PM 81.0 °F 82.5 °F 64.0 °F 56% 29.90 in 10.0 mi ESE 15.0 mph 20.7 mph N/A   Mostly Cloudy
4:55 PM 81.0 °F 82.7 °F 64.9 °F 58% 29.89 in 10.0 mi SSE 13.8 mph - N/A   Mostly Cloudy
5:55 PM 80.1 °F 81.7 °F 64.0 °F 58% 29.89 in 10.0 mi SE 13.8 mph - N/A   Mostly Cloudy
6:55 PM 77.0 °F - 64.0 °F 64% 29.87 in 10.0 mi ESE 10.4 mph - N/A   Clear
7:55 PM 75.9 °F - 64.0 °F 67% 29.86 in 10.0 mi ESE 8.1 mph - N/A   Clear
8:55 PM 73.0 °F - 63.0 °F 71% 29.83 in 10.0 mi ESE 10.4 mph - N/A   Clear
9:55 PM 71.1 °F - 63.0 °F 75% 29.84 in 10.0 mi ESE 6.9 mph - N/A   Clear
10:55 PM 69.1 °F - 64.0 °F 84% 29.84 in 8.0 mi SE 8.1 mph - N/A   Clear
11:55 PM 69.8 °F - 62.6 °F 78% 29.83 in 8.0 mi SE 12.7 mph - N/A   Clear